Location: Felsheim
(48.7267°N, 10.7386°E)
Time: 22:35:12
(UTC+00:00)

CZ-4C R/B - Pass Details

Date: 09 April 2020
Orbit: 638 x 1364 km, 63.4° (Epoch: 23 May)

Event Time Altitude Azimuth Distance (km) Brightness Sun altitude
Rises 20:49:56 0° 318° (NW) 3,738 7.0 -24.6°
Reaches altitude 10° 20:52:24 10° 320° (NW) 2,885 6.0 -24.9°
Maximum altitude 20:59:24 71° 45° (NE) 1,259 3.0 -25.6°
Enters shadow 21:01:49 47° 113° (ESE) 1,589 3.2 -25.8°
